Regional Weather Roundup
Issued by NWS

Home | Current Version | Previous Version | Text Only | Print | Product List | Glossary On
Versions: 1 2 3 4 5 6 7 8 9 10 11 12 13 14 15 16 17 18 19 20 21 22 23 24 25 26 27 28 29 30 31 32 33 34 35 36 37 38 39 40 41 42 43 44 45 46 47 48 49 50
000
ASUS45 KBOI 311410
RWRID
WEATHER ROUNDUP FOR IDAHO
NATIONAL WEATHER SERVICE BOISE ID
700 AM MST SAT JAN 31 2015

NOTE: "FAIR" INDICATES FEW OR NO CLOUDS BELOW 12000 FEET
WITH NO SIGNIFICANT WEATHER AND/OR OBSTRUCTIONS TO VISIBILITY

IDZ012-014-311500-
SOUTHWEST IDAHO


CITY           SKY/WX    TMP DP  RH WIND       PRES   REMARKS
BOISE          CLEAR     25  22  88 E3        30.14R
CALDWELL       CLOUDY    21  16  79 SE3       30.18R VSB 1/2
MOUNTAIN HOME  FRZ DRZL  23  23 100 NE3       30.14R VSB 1/2
$$

IDZ016-017-311500-
SOUTHCENTRAL IDAHO


CITY           SKY/WX    TMP DP  RH WIND       PRES   REMARKS
BURLEY         CLOUDY    33  29  85 W3        30.10R
JEROME         CLOUDY    31  28  89 S5        30.11S WCI  26
TWIN FALLS     CLOUDY    34  28  79 S8        30.11S WCI  27
$$

IDZ019>023-311500-
SOUTHEAST IDAHO


CITY           SKY/WX    TMP DP  RH WIND       PRES   REMARKS
IDAHO FALLS    CLOUDY    29  27  92 SW8       30.07F WCI  21
POCATELLO      CLOUDY    31  30  96 W7        30.10S WCI  24
REXBURG        CLOUDY    22  22 100 NE3       30.08R
$$

IDZ006-010-011-018-031-032-311500-
CENTRAL IDAHO MOUNTAINS


CITY           SKY/WX    TMP DP  RH WIND       PRES   REMARKS
MCCALL         CLEAR     13  10  88 NE3       30.10S
HAILEY         PTCLDY    18   9  68 W7        30.09R WCI   8
STANLEY          N/A     -6 -13  71 CALM      30.17R
SALMON         CLOUDY    27  19  74 CALM      30.21R
CHALLIS        CLOUDY    22  17  81 NW8       30.18R WCI  12
$$

IDZ002-004-006-007-026-311500-
NORTHERN IDAHO


CITY           SKY/WX    TMP DP  RH WIND       PRES   REMARKS
LEWISTON       FLURRIES  34  33  96 CALM      30.28S
LOWELL           N/A     34  30  85 CALM      30.29S
COEUR D`ALENE  CLOUDY    30  27  86 SW5       30.22F WCI  25
MULLAN PASS    FOG       21  18  88 N6        30.05S VSB 1   WCI  13
$$


USA.gov is the U.S. government's official web portal to all federal, state and local government web resources and services.